Wetterdaten: Mittwoch, 02.12.2015
Datum Zeit Temp. A. Feuchte A. Luftdruck Regen Wind Richtung Richtung Sonnenschein ET UV Solar Taupunkt Windchill Windben Empfang
02.12.2015 00:00 9,1 C 91 % 1027,4 hPa 0,0 l/m 14,6 km/h (3 Bft) S-SW 194 0 min 0,000 mm 0,0 UV-I 0 W/m 7,7 C 4,2 C 24,1 km/h (4 Bft) 96,58 %
02.12.2015 00:05 9,1 C 91 % 1027,4 hPa 0,0 l/m 15,9 km/h (3 Bft) SW 232 0 min 0,000 mm 0,0 UV-I 0 W/m 7,7 C 3,7 C 25,7 km/h (4 Bft) 98,10 %
02.12.2015 00:10 9,2 C 90 % 1027,4 hPa 0,0 l/m 14,3 km/h (3 Bft) S-SW 210 0 min 0,000 mm 0,0 UV-I 0 W/m 7,6 C 4,5 C 24,1 km/h (4 Bft) 99,22 %
02.12.2015 00:15 9,2 C 90 % 1027,5 hPa 0,0 l/m 13,4 km/h (3 Bft) W-SW 248 0 min 0,000 mm 0,0 UV-I 0 W/m 7,6 C 4,9 C 24,1 km/h (4 Bft) 98,17 %
02.12.2015 00:20 9,2 C 90 % 1027,5 hPa 0,0 l/m 14,7 km/h (3 Bft) SW 235 0 min 0,000 mm 0,0 UV-I 0 W/m 7,6 C 4,3 C 24,1 km/h (4 Bft) 98,37 %
02.12.2015 00:25 9,2 C 90 % 1027,5 hPa 0,0 l/m 14,7 km/h (3 Bft) W 279 0 min 0,000 mm 0,0 UV-I 0 W/m 7,6 C 4,3 C 24,1 km/h (4 Bft) 99,13 %
02.12.2015 00:30 9,2 C 90 % 1027,4 hPa 0,0 l/m 11,7 km/h (2 Bft) W-SW 242 0 min 0,000 mm 0,0 UV-I 0 W/m 7,6 C 5,8 C 20,9 km/h (4 Bft) 97,52 %
02.12.2015 00:35 9,3 C 89 % 1027,5 hPa 0,0 l/m 15,3 km/h (3 Bft) S-SW 212 0 min 0,000 mm 0,0 UV-I 0 W/m 7,6 C 4,2 C 25,7 km/h (4 Bft) 100,00 %
02.12.2015 00:40 9,3 C 89 % 1027,4 hPa 0,0 l/m 14,9 km/h (3 Bft) SW 231 0 min 0,000 mm 0,0 UV-I 0 W/m 7,6 C 4,3 C 22,5 km/h (4 Bft) 100,00 %
02.12.2015 00:45 9,3 C 89 % 1027,3 hPa 0,0 l/m 13,3 km/h (3 Bft) W 259 0 min 0,000 mm 0,0 UV-I 0 W/m 7,6 C 5,1 C 25,7 km/h (4 Bft) 99,08 %
02.12.2015 00:50 9,3 C 89 % 1027,3 hPa 0,0 l/m 13,2 km/h (3 Bft) W-SW 245 0 min 0,000 mm 0,0 UV-I 0 W/m 7,6 C 5,1 C 22,5 km/h (4 Bft) 98,25 %
02.12.2015 00:55 9,3 C 89 % 1027,2 hPa 0,0 l/m 17,7 km/h (3 Bft) SW 221 0 min 0,000 mm 0,0 UV-I 0 W/m 7,6 C 3,2 C 30,6 km/h (5 Bft) 97,46 %
02.12.2015 01:00 9,3 C 88 % 1027,3 hPa 0,0 l/m 17,2 km/h (3 Bft) W-SW 242 0 min 0,025 mm 0,0 UV-I 0 W/m 7,4 C 3,4 C 29,0 km/h (5 Bft) 99,15 %
02.12.2015 01:05 9,3 C 88 % 1027,3 hPa 0,0 l/m 17,2 km/h (3 Bft) W-SW 250 0 min 0,000 mm 0,0 UV-I 0 W/m 7,4 C 3,4 C 29,0 km/h (5 Bft) 99,12 %
02.12.2015 01:10 9,3 C 88 % 1027,3 hPa 0,0 l/m 15,3 km/h (3 Bft) W-SW 254 0 min 0,000 mm 0,0 UV-I 0 W/m 7,4 C 4,2 C 29,0 km/h (5 Bft) 98,39 %
02.12.2015 01:15 9,4 C 88 % 1027,2 hPa 0,0 l/m 17,0 km/h (3 Bft) W-SW 238 0 min 0,000 mm 0,0 UV-I 0 W/m 7,5 C 3,6 C 27,4 km/h (4 Bft) 100,00 %
02.12.2015 01:20 9,4 C 88 % 1027,2 hPa 0,0 l/m 16,8 km/h (3 Bft) SW 230 0 min 0,000 mm 0,0 UV-I 0 W/m 7,5 C 3,7 C 32,2 km/h (5 Bft) 98,17 %
02.12.2015 01:25 9,4 C 88 % 1027,2 hPa 0,0 l/m 17,6 km/h (3 Bft) SW 215 0 min 0,000 mm 0,0 UV-I 0 W/m 7,5 C 3,4 C 25,7 km/h (4 Bft) 96,61 %
02.12.2015 01:30 9,4 C 87 % 1027,2 hPa 0,0 l/m 18,2 km/h (3 Bft) W-SW 248 0 min 0,000 mm 0,0 UV-I 0 W/m 7,3 C 3,1 C 27,4 km/h (4 Bft) 96,58 %
02.12.2015 01:35 9,5 C 87 % 1027,3 hPa 0,0 l/m 17,4 km/h (3 Bft) W-SW 256 0 min 0,000 mm 0,0 UV-I 0 W/m 7,4 C 3,6 C 27,4 km/h (4 Bft) 96,06 %
02.12.2015 01:40 9,5 C 87 % 1027,2 hPa 0,0 l/m 16,6 km/h (3 Bft) W 263 0 min 0,000 mm 0,0 UV-I 0 W/m 7,4 C 3,9 C 25,7 km/h (4 Bft) 97,09 %
02.12.2015 01:45 9,6 C 86 % 1027,3 hPa 0,0 l/m 17,1 km/h (3 Bft) SW 225 0 min 0,000 mm 0,0 UV-I 0 W/m 7,4 C 3,8 C 25,7 km/h (4 Bft) 97,50 %
02.12.2015 01:50 9,6 C 86 % 1027,3 hPa 0,0 l/m 17,6 km/h (3 Bft) SW 233 0 min 0,000 mm 0,0 UV-I 0 W/m 7,4 C 3,6 C 27,4 km/h (4 Bft) 96,61 %
02.12.2015 01:55 9,7 C 86 % 1027,4 hPa 0,0 l/m 16,6 km/h (3 Bft) W-SW 244 0 min 0,000 mm 0,0 UV-I 0 W/m 7,5 C 4,1 C 25,7 km/h (4 Bft) 96,75 %
02.12.2015 02:00 9,6 C 86 % 1027,3 hPa 0,0 l/m 16,5 km/h (3 Bft) W 269 0 min 0,026 mm 0,0 UV-I 0 W/m 7,4 C 4,0 C 25,7 km/h (4 Bft) 95,65 %
02.12.2015 02:05 9,6 C 86 % 1027,2 hPa 0,0 l/m 19,0 km/h (3 Bft) W-SW 254 0 min 0,000 mm 0,0 UV-I 0 W/m 7,4 C 3,1 C 27,4 km/h (4 Bft) 98,17 %
02.12.2015 02:10 9,7 C 86 % 1027,1 hPa 0,0 l/m 18,9 km/h (3 Bft) W-SW 248 0 min 0,000 mm 0,0 UV-I 0 W/m 7,5 C 3,3 C 32,2 km/h (5 Bft) 100,00 %
02.12.2015 02:15 9,7 C 85 % 1027,1 hPa 0,0 l/m 20,8 km/h (4 Bft) W-SW 246 0 min 0,000 mm 0,0 UV-I 0 W/m 7,3 C 2,6 C 29,0 km/h (5 Bft) 98,21 %
02.12.2015 02:20 9,6 C 86 % 1027,2 hPa 0,0 l/m 19,7 km/h (3 Bft) W 264 0 min 0,000 mm 0,0 UV-I 0 W/m 7,4 C 2,9 C 40,2 km/h (6 Bft) 99,15 %
02.12.2015 02:25 9,6 C 86 % 1027,2 hPa 0,0 l/m 17,0 km/h (3 Bft) W 259 0 min 0,000 mm 0,0 UV-I 0 W/m 7,4 C 3,8 C 40,2 km/h (6 Bft) 100,00 %
02.12.2015 02:30 9,6 C 85 % 1027,2 hPa 0,0 l/m 19,2 km/h (3 Bft) W-SW 246 0 min 0,000 mm 0,0 UV-I 0 W/m 7,2 C 3,0 C 30,6 km/h (5 Bft) 99,19 %
02.12.2015 02:35 9,7 C 85 % 1027,3 hPa 0,0 l/m 18,5 km/h (3 Bft) W 259 0 min 0,000 mm 0,0 UV-I 0 W/m 7,3 C 3,4 C 27,4 km/h (4 Bft) 100,00 %
02.12.2015 02:40 9,7 C 85 % 1027,3 hPa 0,0 l/m 18,5 km/h (3 Bft) W-SW 247 0 min 0,000 mm 0,0 UV-I 0 W/m 7,3 C 3,4 C 30,6 km/h (5 Bft) 98,97 %
02.12.2015 02:45 9,7 C 85 % 1027,2 hPa 0,0 l/m 20,7 km/h (4 Bft) SW 233 0 min 0,000 mm 0,0 UV-I 0 W/m 7,3 C 2,7 C 29,0 km/h (5 Bft) 98,46 %
02.12.2015 02:50 9,7 C 84 % 1027,2 hPa 0,0 l/m 19,6 km/h (3 Bft) W-SW 256 0 min 0,000 mm 0,0 UV-I 0 W/m 7,1 C 3,0 C 29,0 km/h (5 Bft) 96,58 %
02.12.2015 02:55 9,7 C 85 % 1027,3 hPa 0,0 l/m 17,3 km/h (3 Bft) SW 219 0 min 0,000 mm 0,0 UV-I 0 W/m 7,3 C 3,9 C 33,8 km/h (5 Bft) 99,19 %
02.12.2015 03:00 9,7 C 85 % 1027,3 hPa 0,0 l/m 15,8 km/h (3 Bft) W-SW 254 0 min 0,025 mm 0,0 UV-I 0 W/m 7,3 C 4,4 C 27,4 km/h (4 Bft) 99,15 %
02.12.2015 03:05 9,6 C 85 % 1027,3 hPa 0,0 l/m 15,7 km/h (3 Bft) W-SW 256 0 min 0,000 mm 0,0 UV-I 0 W/m 7,2 C 4,4 C 24,1 km/h (4 Bft) 97,22 %
02.12.2015 03:10 9,6 C 85 % 1027,4 hPa 0,0 l/m 16,2 km/h (3 Bft) W-SW 243 0 min 0,000 mm 0,0 UV-I 0 W/m 7,2 C 4,2 C 25,7 km/h (4 Bft) 99,19 %
02.12.2015 03:15 9,6 C 85 % 1027,5 hPa 0,0 l/m 14,0 km/h (3 Bft) W-SW 250 0 min 0,000 mm 0,0 UV-I 0 W/m 7,2 C 5,1 C 22,5 km/h (4 Bft) 99,12 %
02.12.2015 03:20 9,5 C 86 % 1027,4 hPa 0,0 l/m 12,8 km/h (3 Bft) W-SW 254 0 min 0,000 mm 0,0 UV-I 0 W/m 7,3 C 5,5 C 19,3 km/h (3 Bft) 100,00 %
02.12.2015 03:25 9,4 C 86 % 1027,4 hPa 0,0 l/m 13,5 km/h (3 Bft) W 261 0 min 0,000 mm 0,0 UV-I 0 W/m 7,2 C 5,1 C 20,9 km/h (4 Bft) 99,19 %
02.12.2015 03:30 9,4 C 86 % 1027,2 hPa 0,0 l/m 15,1 km/h (3 Bft) W-SW 237 0 min 0,000 mm 0,0 UV-I 0 W/m 7,2 C 4,4 C 22,5 km/h (4 Bft) 97,37 %
02.12.2015 03:35 9,4 C 86 % 1027,2 hPa 0,0 l/m 14,9 km/h (3 Bft) W-SW 252 0 min 0,000 mm 0,0 UV-I 0 W/m 7,2 C 4,5 C 22,5 km/h (4 Bft) 95,54 %
02.12.2015 03:40 9,5 C 86 % 1027,2 hPa 0,0 l/m 16,1 km/h (3 Bft) W-SW 240 0 min 0,000 mm 0,0 UV-I 0 W/m 7,3 C 4,1 C 27,4 km/h (4 Bft) 97,58 %
02.12.2015 03:45 9,5 C 86 % 1027,2 hPa 0,0 l/m 13,7 km/h (3 Bft) SW 215 0 min 0,000 mm 0,0 UV-I 0 W/m 7,3 C 5,1 C 19,3 km/h (3 Bft) 96,58 %
02.12.2015 03:50 9,4 C 86 % 1027,3 hPa 0,0 l/m 13,8 km/h (3 Bft) SW 219 0 min 0,000 mm 0,0 UV-I 0 W/m 7,2 C 4,9 C 19,3 km/h (3 Bft) 97,46 %
02.12.2015 03:55 9,4 C 86 % 1027,2 hPa 0,0 l/m 12,3 km/h (3 Bft) SW 233 0 min 0,000 mm 0,0 UV-I 0 W/m 7,2 C 5,7 C 19,3 km/h (3 Bft) 97,25 %
02.12.2015 04:00 9,4 C 86 % 1027,3 hPa 0,0 l/m 15,6 km/h (3 Bft) SW 215 0 min 0,026 mm 0,0 UV-I 0 W/m 7,2 C 4,2 C 24,1 km/h (4 Bft) 96,67 %
02.12.2015 04:05 9,4 C 86 % 1027,3 hPa 0,0 l/m 13,5 km/h (3 Bft) W-SW 251 0 min 0,000 mm 0,0 UV-I 0 W/m 7,2 C 5,1 C 22,5 km/h (4 Bft) 97,98 %
02.12.2015 04:10 9,5 C 86 % 1027,3 hPa 0,0 l/m 14,7 km/h (3 Bft) S-SW 211 0 min 0,000 mm 0,0 UV-I 0 W/m 7,3 C 4,7 C 24,1 km/h (4 Bft) 99,12 %
02.12.2015 04:15 9,5 C 86 % 1027,2 hPa 0,0 l/m 14,1 km/h (3 Bft) SW 234 0 min 0,000 mm 0,0 UV-I 0 W/m 7,3 C 4,9 C 20,9 km/h (4 Bft) 95,16 %
02.12.2015 04:20 9,5 C 86 % 1027,2 hPa 0,0 l/m 13,4 km/h (3 Bft) W 263 0 min 0,000 mm 0,0 UV-I 0 W/m 7,3 C 5,2 C 24,1 km/h (4 Bft) 100,00 %
02.12.2015 04:25 9,5 C 86 % 1027,3 hPa 0,0 l/m 13,8 km/h (3 Bft) W-SW 238 0 min 0,000 mm 0,0 UV-I 0 W/m 7,3 C 5,1 C 30,6 km/h (5 Bft) 99,17 %
02.12.2015 04:30 9,5 C 86 % 1027,2 hPa 0,0 l/m 13,9 km/h (3 Bft) W 263 0 min 0,000 mm 0,0 UV-I 0 W/m 7,3 C 5,0 C 25,7 km/h (4 Bft) 100,00 %
02.12.2015 04:35 9,6 C 86 % 1027,2 hPa 0,0 l/m 17,0 km/h (3 Bft) W-SW 242 0 min 0,000 mm 0,0 UV-I 0 W/m 7,4 C 3,8 C 27,4 km/h (4 Bft) 100,00 %
02.12.2015 04:40 9,5 C 86 % 1027,2 hPa 0,0 l/m 15,1 km/h (3 Bft) SW 227 0 min 0,000 mm 0,0 UV-I 0 W/m 7,3 C 4,5 C 24,1 km/h (4 Bft) 98,33 %
02.12.2015 04:45 9,5 C 86 % 1027,3 hPa 0,0 l/m 13,2 km/h (3 Bft) W 261 0 min 0,000 mm 0,0 UV-I 0 W/m 7,3 C 5,3 C 24,1 km/h (4 Bft) 97,64 %
02.12.2015 04:50 9,5 C 86 % 1027,3 hPa 0,0 l/m 13,9 km/h (3 Bft) SW 227 0 min 0,000 mm 0,0 UV-I 0 W/m 7,3 C 5,0 C 22,5 km/h (4 Bft) 98,25 %
02.12.2015 04:55 9,4 C 87 % 1027,2 hPa 0,0 l/m 14,1 km/h (3 Bft) S-SW 198 0 min 0,000 mm 0,0 UV-I 0 W/m 7,3 C 4,8 C 22,5 km/h (4 Bft) 98,17 %
02.12.2015 05:00 9,4 C 87 % 1027,2 hPa 0,0 l/m 10,5 km/h (2 Bft) W-SW 252 0 min 0,025 mm 0,0 UV-I 0 W/m 7,3 C 6,6 C 19,3 km/h (3 Bft) 99,19 %
02.12.2015 05:05 9,4 C 87 % 1027,3 hPa 0,0 l/m 14,2 km/h (3 Bft) W-SW 252 0 min 0,000 mm 0,0 UV-I 0 W/m 7,3 C 4,8 C 24,1 km/h (4 Bft) 99,12 %
02.12.2015 05:10 9,4 C 87 % 1027,3 hPa 0,0 l/m 13,6 km/h (3 Bft) W-SW 249 0 min 0,000 mm 0,0 UV-I 0 W/m 7,3 C 5,0 C 24,1 km/h (4 Bft) 99,19 %
02.12.2015 05:15 9,4 C 87 % 1027,3 hPa 0,0 l/m 11,8 km/h (2 Bft) W 259 0 min 0,000 mm 0,0 UV-I 0 W/m 7,3 C 5,9 C 19,3 km/h (3 Bft) 99,12 %
02.12.2015 05:20 9,3 C 87 % 1027,3 hPa 0,0 l/m 13,3 km/h (3 Bft) W-SW 242 0 min 0,000 mm 0,0 UV-I 0 W/m 7,2 C 5,1 C 22,5 km/h (4 Bft) 100,00 %
02.12.2015 05:25 9,3 C 88 % 1027,4 hPa 0,0 l/m 14,3 km/h (3 Bft) W-SW 250 0 min 0,000 mm 0,0 UV-I 0 W/m 7,4 C 4,6 C 22,5 km/h (4 Bft) 98,35 %
02.12.2015 05:30 9,3 C 88 % 1027,4 hPa 0,0 l/m 13,1 km/h (3 Bft) W-SW 243 0 min 0,000 mm 0,0 UV-I 0 W/m 7,4 C 5,2 C 20,9 km/h (4 Bft) 100,00 %
02.12.2015 05:35 9,2 C 88 % 1027,4 hPa 0,0 l/m 15,0 km/h (3 Bft) SW 234 0 min 0,000 mm 0,0 UV-I 0 W/m 7,3 C 4,2 C 29,0 km/h (5 Bft) 97,17 %
02.12.2015 05:40 9,2 C 88 % 1027,3 hPa 0,0 l/m 15,1 km/h (3 Bft) W-SW 241 0 min 0,000 mm 0,0 UV-I 0 W/m 7,3 C 4,1 C 22,5 km/h (4 Bft) 94,17 %
02.12.2015 05:45 9,2 C 88 % 1027,4 hPa 0,0 l/m 14,7 km/h (3 Bft) W-SW 246 0 min 0,000 mm 0,0 UV-I 0 W/m 7,3 C 4,3 C 24,1 km/h (4 Bft) 96,75 %
02.12.2015 05:50 9,2 C 88 % 1027,4 hPa 0,0 l/m 13,9 km/h (3 Bft) W 263 0 min 0,000 mm 0,0 UV-I 0 W/m 7,3 C 4,7 C 20,9 km/h (4 Bft) 97,46 %
02.12.2015 05:55 9,2 C 88 % 1027,5 hPa 0,0 l/m 17,1 km/h (3 Bft) W-SW 250 0 min 0,000 mm 0,0 UV-I 0 W/m 7,3 C 3,3 C 24,1 km/h (4 Bft) 97,44 %
02.12.2015 06:00 9,2 C 88 % 1027,5 hPa 0,0 l/m 16,1 km/h (3 Bft) SW 235 0 min 0,025 mm 0,0 UV-I 0 W/m 7,3 C 3,7 C 24,1 km/h (4 Bft) 97,52 %
02.12.2015 06:05 9,2 C 88 % 1027,5 hPa 0,0 l/m 13,3 km/h (3 Bft) W-SW 244 0 min 0,000 mm 0,0 UV-I 0 W/m 7,3 C 4,9 C 20,9 km/h (4 Bft) 98,11 %
02.12.2015 06:10 9,1 C 89 % 1027,6 hPa 0,0 l/m 16,2 km/h (3 Bft) W-SW 248 0 min 0,000 mm 0,0 UV-I 0 W/m 7,4 C 3,5 C 24,1 km/h (4 Bft) 95,76 %
02.12.2015 06:15 9,1 C 89 % 1027,6 hPa 0,0 l/m 14,4 km/h (3 Bft) SW 229 0 min 0,000 mm 0,0 UV-I 0 W/m 7,4 C 4,3 C 20,9 km/h (4 Bft) 99,15 %
02.12.2015 06:20 9,0 C 90 % 1027,6 hPa 0,0 l/m 16,4 km/h (3 Bft) W 274 0 min 0,000 mm 0,0 UV-I 0 W/m 7,4 C 3,3 C 24,1 km/h (4 Bft) 99,17 %
02.12.2015 06:25 8,8 C 91 % 1027,6 hPa 0,0 l/m 17,5 km/h (3 Bft) W-SW 250 0 min 0,000 mm 0,0 UV-I 0 W/m 7,4 C 2,6 C 27,4 km/h (4 Bft) 100,00 %
02.12.2015 06:30 8,8 C 90 % 1027,7 hPa 0,0 l/m 17,6 km/h (3 Bft) W-SW 253 0 min 0,000 mm 0,0 UV-I 0 W/m 7,3 C 2,6 C 27,4 km/h (4 Bft) 99,17 %
02.12.2015 06:35 8,8 C 90 % 1027,8 hPa 0,0 l/m 18,0 km/h (3 Bft) W-SW 239 0 min 0,000 mm 0,0 UV-I 0 W/m 7,3 C 2,5 C 27,4 km/h (4 Bft) 100,00 %
02.12.2015 06:40 8,9 C 89 % 1027,8 hPa 0,0 l/m 17,1 km/h (3 Bft) W 260 0 min 0,000 mm 0,0 UV-I 0 W/m 7,2 C 2,9 C 29,0 km/h (5 Bft) 100,00 %
02.12.2015 06:45 8,8 C 90 % 1027,9 hPa 0,0 l/m 17,0 km/h (3 Bft) SW 236 0 min 0,000 mm 0,0 UV-I 0 W/m 7,3 C 2,8 C 25,7 km/h (4 Bft) 100,00 %
02.12.2015 06:50 8,7 C 91 % 1027,9 hPa 0,0 l/m 16,9 km/h (3 Bft) S-SW 213 0 min 0,000 mm 0,0 UV-I 0 W/m 7,3 C 2,8 C 29,0 km/h (5 Bft) 99,23 %
02.12.2015 06:55 8,6 C 91 % 1027,9 hPa 0,0 l/m 13,5 km/h (3 Bft) W 265 0 min 0,000 mm 0,0 UV-I 0 W/m 7,2 C 4,1 C 20,9 km/h (4 Bft) 99,11 %
02.12.2015 07:00 8,7 C 90 % 1027,9 hPa 0,0 l/m 15,9 km/h (3 Bft) W-SW 250 0 min 0,026 mm 0,0 UV-I 0 W/m 7,2 C 3,2 C 25,7 km/h (4 Bft) 99,17 %
02.12.2015 07:05 8,8 C 89 % 1028,0 hPa 0,0 l/m 14,7 km/h (3 Bft) W-SW 242 0 min 0,000 mm 0,0 UV-I 0 W/m 7,1 C 3,8 C 24,1 km/h (4 Bft) 99,15 %
02.12.2015 07:10 8,8 C 88 % 1028,0 hPa 0,0 l/m 16,8 km/h (3 Bft) S-SW 208 0 min 0,000 mm 0,0 UV-I 0 W/m 6,9 C 2,9 C 25,7 km/h (4 Bft) 99,11 %
02.12.2015 07:15 8,9 C 87 % 1028,0 hPa 0,0 l/m 16,0 km/h (3 Bft) SW 232 0 min 0,000 mm 0,0 UV-I 0 W/m 6,9 C 3,4 C 22,5 km/h (4 Bft) 100,00 %
02.12.2015 07:20 8,9 C 87 % 1028,1 hPa 0,0 l/m 14,7 km/h (3 Bft) W-SW 242 0 min 0,000 mm 0,0 UV-I 0 W/m 6,9 C 3,9 C 24,1 km/h (4 Bft) 99,12 %
02.12.2015 07:25 8,9 C 87 % 1028,1 hPa 0,0 l/m 12,9 km/h (3 Bft) SW 227 0 min 0,000 mm 0,0 UV-I 0 W/m 6,9 C 4,8 C 19,3 km/h (3 Bft) 99,19 %
02.12.2015 07:30 9,1 C 87 % 1028,1 hPa 0,0 l/m 18,0 km/h (3 Bft) W-SW 255 0 min 0,000 mm 0,0 UV-I 0 W/m 7,1 C 2,8 C 30,6 km/h (5 Bft) 95,88 %
02.12.2015 07:35 9,1 C 86 % 1028,1 hPa 0,0 l/m 15,7 km/h (3 Bft) W-SW 252 0 min 0,000 mm 0,0 UV-I 0 W/m 6,9 C 3,7 C 24,1 km/h (4 Bft) 98,55 %
02.12.2015 07:40 9,1 C 86 % 1028,1 hPa 0,0 l/m 14,8 km/h (3 Bft) W-SW 239 0 min 0,000 mm 0,0 UV-I 0 W/m 6,9 C 4,1 C 22,5 km/h (4 Bft) 98,31 %
02.12.2015 07:45 9,1 C 86 % 1028,2 hPa 0,0 l/m 18,0 km/h (3 Bft) SW 231 0 min 0,000 mm 0,0 UV-I 3 W/m 6,9 C 2,8 C 27,4 km/h (4 Bft) 97,30 %
02.12.2015 07:50 9,1 C 86 % 1028,3 hPa 0,0 l/m 16,2 km/h (3 Bft) S-SW 211 0 min 0,000 mm 0,0 UV-I 2 W/m 6,9 C 3,5 C 25,7 km/h (4 Bft) 96,06 %
02.12.2015 07:55 9,0 C 87 % 1028,4 hPa 0,0 l/m 15,4 km/h (3 Bft) SW 229 0 min 0,000 mm 0,0 UV-I 5 W/m 7,0 C 3,7 C 24,1 km/h (4 Bft) 96,12 %
02.12.2015 08:00 8,9 C 87 % 1028,4 hPa 0,0 l/m 16,0 km/h (3 Bft) W-SW 239 0 min 0,025 mm 0,0 UV-I 7 W/m 6,9 C 3,4 C 24,1 km/h (4 Bft) 96,75 %
02.12.2015 08:05 8,9 C 87 % 1028,4 hPa 0,0 l/m 15,7 km/h (3 Bft) SW 219 0 min 0,000 mm 0,0 UV-I 10 W/m 6,9 C 3,5 C 24,1 km/h (4 Bft) 97,46 %
02.12.2015 08:10 8,9 C 87 % 1028,3 hPa 0,0 l/m 18,3 km/h (3 Bft) S-SW 213 0 min 0,000 mm 0,0 UV-I 11 W/m 6,9 C 2,5 C 30,6 km/h (5 Bft) 95,73 %
02.12.2015 08:15 8,9 C 87 % 1028,3 hPa 0,0 l/m 18,9 km/h (3 Bft) SW 236 0 min 0,000 mm 0,0 UV-I 15 W/m 6,9 C 2,3 C 25,7 km/h (4 Bft) 97,58 %
02.12.2015 08:20 8,9 C 87 % 1028,3 hPa 0,0 l/m 19,1 km/h (3 Bft) SW 226 0 min 0,000 mm 0,0 UV-I 19 W/m 6,9 C 2,2 C 30,6 km/h (5 Bft) 98,21 %
02.12.2015 08:25 8,9 C 87 % 1028,3 hPa 0,0 l/m 18,6 km/h (3 Bft) S-SW 213 0 min 0,000 mm 0,0 UV-I 17 W/m 6,9 C 2,4 C 29,0 km/h (5 Bft) 98,33 %
02.12.2015 08:30 8,9 C 86 % 1028,4 hPa 0,0 l/m 19,0 km/h (3 Bft) W-SW 238 0 min 0,000 mm 0,0 UV-I 14 W/m 6,7 C 2,2 C 32,2 km/h (5 Bft) 100,00 %
02.12.2015 08:35 9,0 C 86 % 1028,4 hPa 0,0 l/m 18,2 km/h (3 Bft) W-SW 242 0 min 0,000 mm 0,0 UV-I 23 W/m 6,8 C 2,6 C 25,7 km/h (4 Bft) 98,17 %
02.12.2015 08:40 8,9 C 86 % 1028,4 hPa 0,0 l/m 16,4 km/h (3 Bft) W-SW 242 0 min 0,000 mm 0,0 UV-I 32 W/m 6,7 C 3,2 C 27,4 km/h (4 Bft) 97,44 %
02.12.2015 08:45 8,9 C 86 % 1028,5 hPa 0,0 l/m 16,0 km/h (3 Bft) W-SW 239 0 min 0,000 mm 0,0 UV-I 41 W/m 6,7 C 3,4 C 25,7 km/h (4 Bft) 99,21 %
02.12.2015 08:50 9,0 C 86 % 1028,6 hPa 0,0 l/m 14,2 km/h (3 Bft) S-SW 202 0 min 0,000 mm 0,0 UV-I 48 W/m 6,8 C 4,3 C 22,5 km/h (4 Bft) 100,00 %
02.12.2015 08:55 9,0 C 86 % 1028,6 hPa 0,0 l/m 14,4 km/h (3 Bft) SW 221 0 min 0,000 mm 0,0 UV-I 48 W/m 6,8 C 4,2 C 27,4 km/h (4 Bft) 100,00 %
02.12.2015 09:00 9,1 C 86 % 1028,5 hPa 0,0 l/m 15,8 km/h (3 Bft) W-SW 237 0 min 0,026 mm 0,0 UV-I 53 W/m 6,9 C 3,7 C 24,1 km/h (4 Bft) 100,00 %
02.12.2015 09:05 9,1 C 86 % 1028,5 hPa 0,0 l/m 16,3 km/h (3 Bft) W-SW 245 0 min 0,000 mm 0,0 UV-I 56 W/m 6,9 C 3,5 C 25,7 km/h (4 Bft) 97,56 %
02.12.2015 09:10 9,1 C 85 % 1028,5 hPa 0,0 l/m 18,2 km/h (3 Bft) SW 232 0 min 0,000 mm 0,0 UV-I 60 W/m 6,7 C 2,8 C 32,2 km/h (5 Bft) 98,31 %
02.12.2015 09:15 9,1 C 85 % 1028,6 hPa 0,0 l/m 19,3 km/h (3 Bft) W-SW 239 0 min 0,000 mm 0,0 UV-I 100 W/m 6,7 C 2,4 C 29,0 km/h (5 Bft) 100,00 %
02.12.2015 09:20 9,3 C 85 % 1028,7 hPa 0,0 l/m 16,9 km/h (3 Bft) SW 233 0 min 0,000 mm 0,0 UV-I 84 W/m 6,9 C 3,5 C 27,4 km/h (4 Bft) 100,00 %
02.12.2015 09:25 9,3 C 85 % 1028,8 hPa 0,0 l/m 14,5 km/h (3 Bft) W-SW 247 0 min 0,000 mm 0,0 UV-I 72 W/m 6,9 C 4,5 C 22,5 km/h (4 Bft) 100,00 %
02.12.2015 09:30 9,3 C 85 % 1028,8 hPa 0,0 l/m 12,9 km/h (3 Bft) W-SW 247 0 min 0,000 mm 0,0 UV-I 73 W/m 6,9 C 5,3 C 22,5 km/h (4 Bft) 100,00 %
02.12.2015 09:35 9,3 C 85 % 1028,8 hPa 0,0 l/m 12,9 km/h (3 Bft) W-SW 247 0 min 0,000 mm 0,0 UV-I 74 W/m 6,9 C 5,3 C 22,5 km/h (4 Bft) 100,00 %
02.12.2015 09:40 9,3 C 85 % 1028,8 hPa 0,0 l/m 12,9 km/h (3 Bft) SW 225 0 min 0,000 mm 0,0 UV-I 67 W/m 6,9 C 5,3 C 22,5 km/h (4 Bft) 100,00 %
02.12.2015 09:45 9,3 C 84 % 1028,9 hPa 0,0 l/m 12,9 km/h (3 Bft) SW 225 0 min 0,000 mm 0,0 UV-I 74 W/m 6,7 C 5,3 C 22,5 km/h (4 Bft) 100,00 %
02.12.2015 09:50 9,3 C 84 % 1029,0 hPa 0,0 l/m 11,3 km/h (2 Bft) SW 225 0 min 0,000 mm 0,0 UV-I 79 W/m 6,7 C 6,1 C 20,9 km/h (4 Bft) 100,00 %
02.12.2015 09:55 9,3 C 84 % 1029,1 hPa 0,0 l/m 11,3 km/h (2 Bft) SW 225 0 min 0,000 mm 0,0 UV-I 79 W/m 6,7 C 6,1 C 19,3 km/h (3 Bft) 100,00 %
02.12.2015 10:00 9,3 C 84 % 1029,2 hPa 0,0 l/m 12,9 km/h (3 Bft) S-SW 202 0 min 0,051 mm 0,0 UV-I 71 W/m 6,7 C 5,3 C 24,1 km/h (4 Bft) 100,00 %
02.12.2015 10:05 9,4 C 83 % 1029,2 hPa 0,0 l/m 12,9 km/h (3 Bft) S-SW 202 0 min 0,000 mm 0,0 UV-I 91 W/m 6,7 C 5,4 C 22,5 km/h (4 Bft) 100,00 %
02.12.2015 10:10 9,5 C 84 % 1029,3 hPa 0,0 l/m 11,3 km/h (2 Bft) SW 225 0 min 0,000 mm 0,0 UV-I 91 W/m 6,9 C 6,3 C 22,5 km/h (4 Bft) 100,00 %
02.12.2015 10:15 9,6 C 84 % 1029,4 hPa 0,0 l/m 12,9 km/h (3 Bft) SW 225 0 min 0,000 mm 0,0 UV-I 92 W/m 7,0 C 5,6 C 19,3 km/h (3 Bft) 98,25 %
02.12.2015 10:20 9,6 C 83 % 1029,5 hPa 0,0 l/m 12,9 km/h (3 Bft) S-SW 202 0 min 0,000 mm 0,0 UV-I 80 W/m 6,9 C 5,6 C 22,5 km/h (4 Bft) 97,37 %
02.12.2015 10:25 9,7 C 83 % 1029,5 hPa 0,0 l/m 13,3 km/h (3 Bft) S-SW 213 0 min 0,000 mm 0,0 UV-I 74 W/m 7,0 C 5,5 C 22,5 km/h (4 Bft) 98,04 %
02.12.2015 10:30 9,7 C 82 % 1029,5 hPa 0,0 l/m 11,6 km/h (2 Bft) S 182 0 min 0,000 mm 0,0 UV-I 67 W/m 6,8 C 6,4 C 20,9 km/h (4 Bft) 99,11 %
02.12.2015 10:35 9,8 C 83 % 1029,6 hPa 0,0 l/m 11,2 km/h (2 Bft) S-SW 202 0 min 0,000 mm 0,0 UV-I 66 W/m 7,1 C 6,7 C 22,5 km/h (4 Bft) 99,15 %
02.12.2015 10:40 9,8 C 82 % 1029,6 hPa 0,0 l/m 13,0 km/h (3 Bft) S 190 0 min 0,000 mm 0,0 UV-I 68 W/m 6,9 C 5,8 C 29,0 km/h (5 Bft) 100,00 %
02.12.2015 10:45 9,8 C 82 % 1029,5 hPa 0,0 l/m 9,6 km/h (2 Bft) SW 223 0 min 0,000 mm 0,0 UV-I 68 W/m 6,9 C 7,6 C 17,7 km/h (3 Bft) 100,00 %
02.12.2015 10:50 9,8 C 82 % 1029,5 hPa 0,0 l/m 10,8 km/h (2 Bft) S-SW 209 0 min 0,000 mm 0,0 UV-I 71 W/m 6,9 C 6,9 C 19,3 km/h (3 Bft) 100,00 %
02.12.2015 10:55 9,8 C 83 % 1029,5 hPa 0,0 l/m 11,4 km/h (2 Bft) W 262 0 min 0,000 mm 0,0 UV-I 70 W/m 7,1 C 6,6 C 22,5 km/h (4 Bft) 100,00 %
02.12.2015 11:00 9,8 C 82 % 1029,5 hPa 0,0 l/m 15,3 km/h (3 Bft) S-SW 209 0 min 0,050 mm 0,0 UV-I 69 W/m 6,9 C 4,8 C 22,5 km/h (4 Bft) 100,00 %
02.12.2015 11:05 9,8 C 82 % 1029,5 hPa 0,0 l/m 13,8 km/h (3 Bft) SW 221 0 min 0,000 mm 0,0 UV-I 76 W/m 6,9 C 5,4 C 25,7 km/h (4 Bft) 96,61 %
02.12.2015 11:10 9,9 C 82 % 1029,5 hPa 0,0 l/m 12,2 km/h (2 Bft) W-SW 239 0 min 0,000 mm 0,0 UV-I 75 W/m 7,0 C 6,3 C 17,7 km/h (3 Bft) 100,00 %
02.12.2015 11:15 9,9 C 82 % 1029,5 hPa 0,0 l/m 13,1 km/h (3 Bft) SW 214 0 min 0,000 mm 0,0 UV-I 77 W/m 7,0 C 5,9 C 22,5 km/h (4 Bft) 96,83 %
02.12.2015 11:20 9,9 C 82 % 1029,6 hPa 0,0 l/m 12,1 km/h (2 Bft) SW 221 0 min 0,000 mm 0,0 UV-I 81 W/m 7,0 C 6,3 C 22,5 km/h (4 Bft) 100,00 %
02.12.2015 11:25 10,0 C 82 % 1029,6 hPa 0,0 l/m 12,8 km/h (3 Bft) SW 235 0 min 0,000 mm 0,0 UV-I 87 W/m 7,1 C 6,1 C 20,9 km/h (4 Bft) 100,00 %
02.12.2015 11:30 10,0 C 82 % 1029,7 hPa 0,0 l/m 12,8 km/h (3 Bft) SW 234 0 min 0,000 mm 0,0 UV-I 85 W/m 7,1 C 6,1 C 20,9 km/h (4 Bft) 98,21 %
02.12.2015 11:35 10,0 C 82 % 1029,7 hPa 0,0 l/m 12,5 km/h (3 Bft) W-SW 244 0 min 0,000 mm 0,0 UV-I 92 W/m 7,1 C 6,3 C 24,1 km/h (4 Bft) 99,16 %
02.12.2015 11:40 10,1 C 81 % 1029,6 hPa 0,0 l/m 13,6 km/h (3 Bft) W-SW 247 0 min 0,000 mm 0,0 UV-I 106 W/m 7,0 C 5,9 C 20,9 km/h (4 Bft) 99,19 %
02.12.2015 11:45 10,1 C 82 % 1029,6 hPa 0,0 l/m 10,8 km/h (2 Bft) W-SW 254 0 min 0,000 mm 0,0 UV-I 91 W/m 7,2 C 7,3 C 17,7 km/h (3 Bft) 97,39 %
02.12.2015 11:50 10,1 C 81 % 1029,7 hPa 0,0 l/m 12,1 km/h (2 Bft) S-SW 213 0 min 0,000 mm 0,0 UV-I 92 W/m 7,0 C 6,6 C 19,3 km/h (3 Bft) 97,32 %
02.12.2015 11:55 10,1 C 80 % 1029,7 hPa 0,0 l/m 15,1 km/h (3 Bft) W-SW 249 0 min 0,000 mm 0,0 UV-I 95 W/m 6,8 C 5,2 C 24,1 km/h (4 Bft) 96,49 %
02.12.2015 12:00 10,2 C 81 % 1029,6 hPa 0,0 l/m 13,5 km/h (3 Bft) W-SW 252 0 min 0,076 mm 0,0 UV-I 93 W/m 7,1 C 6,0 C 19,3 km/h (3 Bft) 96,85 %
02.12.2015 12:05 10,2 C 80 % 1029,6 hPa 0,0 l/m 13,0 km/h (3 Bft) SW 232 0 min 0,000 mm 0,0 UV-I 83 W/m 6,9 C 6,3 C 22,5 km/h (4 Bft) 98,17 %
02.12.2015 12:10 10,2 C 80 % 1029,7 hPa 0,0 l/m 11,7 km/h (2 Bft) SW 217 0 min 0,000 mm 0,0 UV-I 78 W/m 6,9 C 6,9 C 19,3 km/h (3 Bft) 96,03 %
02.12.2015 12:15 10,1 C 81 % 1029,7 hPa 0,0 l/m 12,4 km/h (3 Bft) W-SW 248 0 min 0,000 mm 0,0 UV-I 69 W/m 7,0 C 6,4 C 24,1 km/h (4 Bft) 99,11 %
02.12.2015 12:20 10,1 C 81 % 1029,6 hPa 0,0 l/m 11,3 km/h (2 Bft) SW 228 0 min 0,000 mm 0,0 UV-I 69 W/m 7,0 C 7,0 C 22,5 km/h (4 Bft) 96,49 %
02.12.2015 12:25 10,1 C 81 % 1029,6 hPa 0,0 l/m 11,5 km/h (2 Bft) S 185 0 min 0,000 mm 0,0 UV-I 73 W/m 7,0 C 6,9 C 19,3 km/h (3 Bft) 98,21 %
02.12.2015 12:30 10,1 C 81 % 1029,6 hPa 0,0 l/m 10,3 km/h (2 Bft) SW 218 0 min 0,000 mm 0,0 UV-I 73 W/m 7,0 C 7,5 C 17,7 km/h (3 Bft) 100,00 %
02.12.2015 12:35 10,2 C 80 % 1029,7 hPa 0,0 l/m 11,9 km/h (2 Bft) S-SW 202 0 min 0,000 mm 0,0 UV-I 75 W/m 6,9 C 6,8 C 20,9 km/h (4 Bft) 98,20 %
02.12.2015 12:40 10,2 C 80 % 1029,6 hPa 0,0 l/m 13,1 km/h (3 Bft) S-SW 197 0 min 0,000 mm 0,0 UV-I 90 W/m 6,9 C 6,2 C 29,0 km/h (5 Bft) 99,17 %
02.12.2015 12:45 10,2 C 80 % 1029,6 hPa 0,0 l/m 10,8 km/h (2 Bft) S-SO 166 0 min 0,000 mm 0,0 UV-I 95 W/m 6,9 C 7,4 C 17,7 km/h (3 Bft) 99,17 %
02.12.2015 12:50 10,3 C 79 % 1029,5 hPa 0,0 l/m 10,8 km/h (2 Bft) W-SW 244 0 min 0,000 mm 0,0 UV-I 105 W/m 6,8 C 7,5 C 19,3 km/h (3 Bft) 99,10 %
02.12.2015 12:55 10,3 C 80 % 1029,5 hPa 0,0 l/m 11,7 km/h (2 Bft) SW 215 0 min 0,000 mm 0,0 UV-I 106 W/m 7,0 C 7,0 C 20,9 km/h (4 Bft) 97,64 %
02.12.2015 13:00 10,3 C 81 % 1029,5 hPa 0,0 l/m 12,8 km/h (3 Bft) SW 215 0 min 0,000 mm 0,0 UV-I 106 W/m 7,2 C 6,5 C 20,9 km/h (4 Bft) 97,30 %
02.12.2015 13:05 10,3 C 81 % 1029,4 hPa 0,0 l/m 13,8 km/h (3 Bft) W 260 0 min 0,077 mm 0,2 UV-I 128 W/m 7,2 C 6,0 C 25,7 km/h (4 Bft) 98,35 %
02.12.2015 13:10 10,4 C 81 % 1029,4 hPa 0,0 l/m 10,2 km/h (2 Bft) W-SW 247 0 min 0,000 mm 0,5 UV-I 158 W/m 7,3 C 7,9 C 19,3 km/h (3 Bft) 100,00 %
02.12.2015 13:15 10,4 C 80 % 1029,4 hPa 0,0 l/m 12,3 km/h (3 Bft) W-SW 257 0 min 0,000 mm 0,5 UV-I 149 W/m 7,1 C 6,8 C 19,3 km/h (3 Bft) 99,15 %
02.12.2015 13:20 10,4 C 80 % 1029,4 hPa 0,0 l/m 11,8 km/h (2 Bft) S 188 0 min 0,000 mm 0,5 UV-I 120 W/m 7,1 C 7,1 C 19,3 km/h (3 Bft) 99,03 %
02.12.2015 13:25 10,3 C 80 % 1029,3 hPa 0,0 l/m 12,0 km/h (2 Bft) S-SW 195 0 min 0,000 mm 0,5 UV-I 150 W/m 7,0 C 6,9 C 19,3 km/h (3 Bft) 96,85 %
02.12.2015 13:30 10,4 C 80 % 1029,4 hPa 0,0 l/m 11,6 km/h (2 Bft) S-SW 196 0 min 0,000 mm 0,1 UV-I 130 W/m 7,1 C 7,2 C 19,3 km/h (3 Bft) 98,29 %
02.12.2015 13:35 10,3 C 79 % 1029,4 hPa 0,0 l/m 11,5 km/h (2 Bft) W-SW 238 0 min 0,000 mm 0,0 UV-I 113 W/m 6,8 C 7,1 C 22,5 km/h (4 Bft) 100,00 %
02.12.2015 13:40 10,3 C 80 % 1029,5 hPa 0,0 l/m 11,2 km/h (2 Bft) SW 221 0 min 0,000 mm 0,0 UV-I 96 W/m 7,0 C 7,3 C 19,3 km/h (3 Bft) 96,58 %
02.12.2015 13:45 10,3 C 80 % 1029,5 hPa 0,0 l/m 10,0 km/h (2 Bft) SW 223 0 min 0,000 mm 0,0 UV-I 90 W/m 7,0 C 7,9 C 16,1 km/h (3 Bft) 95,76 %
02.12.2015 13:50 10,3 C 80 % 1029,5 hPa 0,0 l/m 7,5 km/h (2 Bft) SW 222 0 min 0,000 mm 0,0 UV-I 92 W/m 7,0 C 9,5 C 14,5 km/h (3 Bft) 96,61 %
02.12.2015 13:55 10,3 C 79 % 1029,5 hPa 0,0 l/m 8,9 km/h (2 Bft) S-SW 213 0 min 0,000 mm 0,0 UV-I 93 W/m 6,8 C 8,6 C 16,1 km/h (3 Bft) 96,40 %
02.12.2015 14:00 10,3 C 80 % 1029,4 hPa 0,0 l/m 7,6 km/h (2 Bft) SW 225 0 min 0,076 mm 0,0 UV-I 92 W/m 7,0 C 9,4 C 12,9 km/h (3 Bft) 98,26 %
02.12.2015 14:05 10,4 C 80 % 1029,4 hPa 0,0 l/m 8,0 km/h (2 Bft) SW 230 0 min 0,000 mm 0,0 UV-I 98 W/m 7,1 C 9,3 C 12,9 km/h (3 Bft) 97,62 %
02.12.2015 14:10 10,4 C 80 % 1029,4 hPa 0,0 l/m 9,1 km/h (2 Bft) SW 225 0 min 0,000 mm 0,0 UV-I 113 W/m 7,1 C 8,6 C 16,1 km/h (3 Bft) 96,43 %
02.12.2015 14:15 10,4 C 80 % 1029,4 hPa 0,0 l/m 7,8 km/h (2 Bft) W-SW 243 0 min 0,000 mm 0,0 UV-I 106 W/m 7,1 C 9,4 C 17,7 km/h (3 Bft) 100,00 %
02.12.2015 14:20 10,4 C 80 % 1029,3 hPa 0,0 l/m 9,2 km/h (2 Bft) W 259 0 min 0,000 mm 0,0 UV-I 113 W/m 7,1 C 8,5 C 17,7 km/h (3 Bft) 97,62 %
02.12.2015 14:25 10,4 C 80 % 1029,3 hPa 0,0 l/m 9,0 km/h (2 Bft) W 264 0 min 0,000 mm 0,0 UV-I 104 W/m 7,1 C 8,6 C 16,1 km/h (3 Bft) 99,11 %
02.12.2015 14:30 10,4 C 80 % 1029,3 hPa 0,0 l/m 10,7 km/h (2 Bft) W-SW 248 0 min 0,000 mm 0,0 UV-I 93 W/m 7,1 C 7,6 C 16,1 km/h (3 Bft) 98,43 %
02.12.2015 14:35 10,3 C 80 % 1029,3 hPa 0,0 l/m 11,2 km/h (2 Bft) W-SW 257 0 min 0,000 mm 0,0 UV-I 95 W/m 7,0 C 7,3 C 19,3 km/h (3 Bft) 99,12 %
02.12.2015 14:40 10,3 C 81 % 1029,4 hPa 0,0 l/m 8,1 km/h (2 Bft) SW 221 0 min 0,000 mm 0,0 UV-I 90 W/m 7,2 C 9,1 C 14,5 km/h (3 Bft) 98,31 %
02.12.2015 14:45 10,3 C 81 % 1029,4 hPa 0,0 l/m 7,4 km/h (2 Bft) SW 231 0 min 0,000 mm 0,0 UV-I 73 W/m 7,2 C 9,6 C 12,9 km/h (3 Bft) 98,11 %
02.12.2015 14:50 10,2 C 81 % 1029,4 hPa 0,0 l/m 7,8 km/h (2 Bft) S-SW 207 0 min 0,000 mm 0,0 UV-I 72 W/m 7,1 C 9,2 C 14,5 km/h (3 Bft) 99,08 %
02.12.2015 14:55 10,2 C 81 % 1029,4 hPa 0,0 l/m 7,0 km/h (2 Bft) S 188 0 min 0,000 mm 0,0 UV-I 66 W/m 7,1 C 9,8 C 12,9 km/h (3 Bft) 98,48 %
02.12.2015 15:00 10,2 C 81 % 1029,5 hPa 0,0 l/m 5,9 km/h (2 Bft) SW 227 0 min 0,051 mm 0,0 UV-I 52 W/m 7,1 C 10,2 C 12,9 km/h (3 Bft) 98,33 %
02.12.2015 15:06 10,2 C 82 % 1029,5 hPa 0,0 l/m 5,1 km/h (1 Bft) W-SW 258 0 min 0,000 mm 0,0 UV-I 42 W/m 7,3 C 10,2 C 11,3 km/h (2 Bft) 100,00 %
02.12.2015 15:10 10,1 C 81 % 1029,5 hPa 0,0 l/m 6,9 km/h (2 Bft) SW 219 0 min 0,000 mm 0,0 UV-I 35 W/m 7,0 C 9,7 C 11,3 km/h (2 Bft) 97,47 %
02.12.2015 15:15 10,1 C 81 % 1029,5 hPa 0,0 l/m 7,8 km/h (2 Bft) W-SW 248 0 min 0,000 mm 0,0 UV-I 33 W/m 7,0 C 9,1 C 12,9 km/h (3 Bft) 100,00 %
02.12.2015 15:20 10,1 C 82 % 1029,4 hPa 0,0 l/m 6,4 km/h (2 Bft) SW 229 0 min 0,000 mm 0,0 UV-I 30 W/m 7,2 C 10,1 C 9,7 km/h (2 Bft) 98,31 %
02.12.2015 15:25 10,0 C 82 % 1029,4 hPa 0,0 l/m 5,4 km/h (1 Bft) SW 227 0 min 0,000 mm 0,0 UV-I 29 W/m 7,1 C 10,0 C 8,0 km/h (2 Bft) 99,19 %
02.12.2015 15:30 9,9 C 82 % 1029,4 hPa 0,0 l/m 5,4 km/h (1 Bft) W-SW 239 0 min 0,000 mm 0,0 UV-I 27 W/m 7,0 C 9,9 C 8,0 km/h (2 Bft) 100,00 %
02.12.2015 15:35 10,0 C 81 % 1029,4 hPa 0,0 l/m 4,1 km/h (1 Bft) SW 217 0 min 0,000 mm 0,0 UV-I 23 W/m 6,9 C 10,0 C 8,0 km/h (2 Bft) 100,00 %
02.12.2015 15:40 9,9 C 81 % 1029,4 hPa 0,0 l/m 5,1 km/h (1 Bft) S-SW 198 0 min 0,000 mm 0,0 UV-I 19 W/m 6,8 C 9,9 C 8,0 km/h (2 Bft) 97,37 %
02.12.2015 15:45 9,9 C 81 % 1029,3 hPa 0,0 l/m 4,1 km/h (1 Bft) S 191 0 min 0,000 mm 0,0 UV-I 17 W/m 6,8 C 9,9 C 6,4 km/h (2 Bft) 94,34 %
02.12.2015 15:50 9,8 C 82 % 1029,4 hPa 0,0 l/m 4,7 km/h (1 Bft) S-SW 206 0 min 0,000 mm 0,0 UV-I 15 W/m 6,9 C 9,8 C 9,7 km/h (2 Bft) 95,16 %
02.12.2015 15:55 9,8 C 82 % 1029,2 hPa 0,0 l/m 4,9 km/h (1 Bft) S-SW 211 0 min 0,000 mm 0,0 UV-I 14 W/m 6,9 C 9,8 C 8,0 km/h (2 Bft) 97,56 %
02.12.2015 16:00 9,8 C 82 % 1029,2 hPa 0,0 l/m 4,8 km/h (1 Bft) S-SW 195 0 min 0,025 mm 0,0 UV-I 11 W/m 6,9 C 9,8 C 11,3 km/h (2 Bft) 97,46 %
02.12.2015 16:06 9,7 C 82 % 1029,2 hPa 0,0 l/m 5,1 km/h (1 Bft) S-SW 207 0 min 0,000 mm 0,0 UV-I 8 W/m 6,8 C 9,7 C 9,7 km/h (2 Bft) 95,74 %
02.12.2015 16:10 9,6 C 82 % 1029,2 hPa 0,0 l/m 3,9 km/h (1 Bft) S 176 0 min 0,000 mm 0,0 UV-I 5 W/m 6,7 C 9,6 C 6,4 km/h (2 Bft) 97,65 %
02.12.2015 16:17 9,6 C 83 % 1029,3 hPa 0,0 l/m 4,2 km/h (1 Bft) S 189 0 min 0,000 mm 0,0 UV-I 1 W/m 6,9 C 9,6 C 8,0 km/h (2 Bft) 97,66 %
02.12.2015 16:20 9,6 C 82 % 1029,3 hPa 0,0 l/m 3,1 km/h (1 Bft) S 189 0 min 0,000 mm 0,0 UV-I 0 W/m 6,7 C 9,6 C 4,8 km/h (1 Bft) 94,29 %
02.12.2015 16:25 9,6 C 82 % 1029,3 hPa 0,0 l/m 4,4 km/h (1 Bft) S-SW 204 0 min 0,000 mm 0,0 UV-I 0 W/m 6,7 C 9,6 C 6,4 km/h (2 Bft) 99,13 %
02.12.2015 16:30 9,5 C 82 % 1029,2 hPa 0,0 l/m 3,4 km/h (1 Bft) S-SW 194 0 min 0,000 mm 0,0 UV-I 0 W/m 6,6 C 9,5 C 6,4 km/h (2 Bft) 97,39 %
02.12.2015 16:35 9,5 C 82 % 1029,2 hPa 0,0 l/m 3,6 km/h (1 Bft) S-SW 195 0 min 0,000 mm 0,0 UV-I 0 W/m 6,6 C 9,5 C 8,0 km/h (2 Bft) 100,00 %
02.12.2015 16:40 9,4 C 82 % 1029,2 hPa 0,0 l/m 2,7 km/h (1 Bft) S-SW 207 0 min 0,000 mm 0,0 UV-I 0 W/m 6,5 C 9,4 C 6,4 km/h (2 Bft) 99,13 %
02.12.2015 16:45 9,4 C 83 % 1029,2 hPa 0,0 l/m 1,9 km/h (1 Bft) S-SW 201 0 min 0,000 mm 0,0 UV-I 0 W/m 6,7 C 9,4 C 4,8 km/h (1 Bft) 98,46 %
02.12.2015 16:50 9,3 C 83 % 1029,2 hPa 0,0 l/m 2,2 km/h (1 Bft) SW 230 0 min 0,000 mm 0,0 UV-I 0 W/m 6,6 C 9,3 C 4,8 km/h (1 Bft) 95,50 %
02.12.2015 16:55 9,2 C 84 % 1029,2 hPa 0,0 l/m 2,5 km/h (1 Bft) SW 230 0 min 0,000 mm 0,0 UV-I 0 W/m 6,6 C 9,2 C 3,2 km/h (1 Bft) 99,15 %
02.12.2015 17:00 9,2 C 84 % 1029,2 hPa 0,0 l/m 2,7 km/h (1 Bft) SW 230 0 min 0,000 mm 0,0 UV-I 0 W/m 6,6 C 9,2 C 4,8 km/h (1 Bft) 99,15 %
02.12.2015 17:06 9,2 C 84 % 1029,2 hPa 0,0 l/m 2,5 km/h (1 Bft) S 182 0 min 0,000 mm 0,0 UV-I 0 W/m 6,6 C 9,2 C 4,8 km/h (1 Bft) 98,64 %
02.12.2015 17:10 9,1 C 84 % 1029,3 hPa 0,0 l/m 2,4 km/h (1 Bft) S-SW 193 0 min 0,000 mm 0,0 UV-I 0 W/m 6,5 C 9,1 C 4,8 km/h (1 Bft) 97,83 %
02.12.2015 17:15 9,1 C 83 % 1029,2 hPa 0,0 l/m 1,9 km/h (1 Bft) S-SW 193 0 min 0,000 mm 0,0 UV-I 0 W/m 6,4 C 9,1 C 3,2 km/h (1 Bft) 99,10 %
02.12.2015 17:20 9,1 C 84 % 1029,3 hPa 0,0 l/m 1,9 km/h (1 Bft) S-SW 193 0 min 0,000 mm 0,0 UV-I 0 W/m 6,5 C 9,1 C 4,8 km/h (1 Bft) 99,11 %
02.12.2015 17:25 9,1 C 84 % 1029,2 hPa 0,0 l/m 0,4 km/h (0 Bft) S-SW 192 0 min 0,000 mm 0,0 UV-I 0 W/m 6,5 C 9,1 C 1,6 km/h (1 Bft) 99,17 %
02.12.2015 17:30 9,0 C 84 % 1029,3 hPa 0,0 l/m 1,4 km/h (1 Bft) S-SW 192 0 min 0,000 mm 0,0 UV-I 0 W/m 6,4 C 9,0 C 3,2 km/h (1 Bft) 99,12 %
02.12.2015 17:35 9,0 C 84 % 1029,3 hPa 0,0 l/m 1,7 km/h (1 Bft) S-SW 192 0 min 0,000 mm 0,0 UV-I 0 W/m 6,4 C 9,0 C 3,2 km/h (1 Bft) 100,00 %
02.12.2015 17:40 9,0 C 84 % 1029,3 hPa 0,0 l/m 2,6 km/h (1 Bft) S-SW 192 0 min 0,000 mm 0,0 UV-I 0 W/m 6,4 C 9,0 C 4,8 km/h (1 Bft) 100,00 %
02.12.2015 17:45 8,9 C 84 % 1029,3 hPa 0,0 l/m 2,1 km/h (1 Bft) S 174 0 min 0,000 mm 0,0 UV-I 0 W/m 6,3 C 8,9 C 4,8 km/h (1 Bft) 96,75 %
02.12.2015 17:50 8,9 C 83 % 1029,3 hPa 0,0 l/m 2,3 km/h (1 Bft) S 178 0 min 0,000 mm 0,0 UV-I 0 W/m 6,2 C 8,9 C 4,8 km/h (1 Bft) 97,25 %
02.12.2015 17:56 9,0 C 83 % 1029,4 hPa 0,0 l/m 2,9 km/h (1 Bft) SW 236 0 min 0,000 mm 0,0 UV-I 0 W/m 6,3 C 9,0 C 4,8 km/h (1 Bft) 97,33 %
02.12.2015 18:00 8,9 C 83 % 1029,3 hPa 0,0 l/m 2,0 km/h (1 Bft) SW 236 0 min 0,000 mm 0,0 UV-I 0 W/m 6,2 C 8,9 C 3,2 km/h (1 Bft) 97,73 %
02.12.2015 18:05 8,8 C 84 % 1029,3 hPa 0,0 l/m 2,1 km/h (1 Bft) SW 236 0 min 0,000 mm 0,0 UV-I 0 W/m 6,2 C 8,8 C 3,2 km/h (1 Bft) 95,87 %
02.12.2015 18:10 8,8 C 84 % 1029,4 hPa 0,0 l/m 2,4 km/h (1 Bft) S-SW 193 0 min 0,000 mm 0,0 UV-I 0 W/m 6,2 C 8,8 C 4,8 km/h (1 Bft) 96,00 %
02.12.2015 18:15 8,7 C 84 % 1029,4 hPa 0,0 l/m 1,8 km/h (1 Bft) S 180 0 min 0,000 mm 0,0 UV-I 0 W/m 6,2 C 8,7 C 4,8 km/h (1 Bft) 98,45 %
02.12.2015 18:20 8,4 C 85 % 1029,4 hPa 0,0 l/m 2,3 km/h (1 Bft) S 169 0 min 0,000 mm 0,0 UV-I 0 W/m 6,0 C 8,4 C 6,4 km/h (2 Bft) 100,00 %
02.12.2015 18:25 8,3 C 85 % 1029,4 hPa 0,0 l/m 4,7 km/h (1 Bft) S 173 0 min 0,000 mm 0,0 UV-I 0 W/m 5,9 C 8,3 C 8,0 km/h (2 Bft) 97,37 %
02.12.2015 18:30 8,3 C 85 % 1029,4 hPa 0,0 l/m 4,1 km/h (1 Bft) S 169 0 min 0,000 mm 0,0 UV-I 0 W/m 5,9 C 8,3 C 6,4 km/h (2 Bft) 98,39 %
02.12.2015 18:35 8,3 C 85 % 1029,4 hPa 0,0 l/m 4,9 km/h (1 Bft) S 170 0 min 0,000 mm 0,0 UV-I 0 W/m 5,9 C 8,3 C 8,0 km/h (2 Bft) 99,13 %
02.12.2015 18:40 8,4 C 85 % 1029,4 hPa 0,0 l/m 3,8 km/h (1 Bft) S 170 0 min 0,000 mm 0,0 UV-I 0 W/m 6,0 C 8,4 C 6,4 km/h (2 Bft) 99,06 %
02.12.2015 18:45 8,4 C 84 % 1029,4 hPa 0,0 l/m 3,6 km/h (1 Bft) S 178 0 min 0,000 mm 0,0 UV-I 0 W/m 5,9 C 8,4 C 8,0 km/h (2 Bft) 98,35 %
02.12.2015 18:50 8,4 C 84 % 1029,3 hPa 0,0 l/m 3,2 km/h (1 Bft) S 178 0 min 0,000 mm 0,0 UV-I 0 W/m 5,9 C 8,4 C 4,8 km/h (1 Bft) 98,41 %
02.12.2015 18:55 8,4 C 84 % 1029,4 hPa 0,0 l/m 4,9 km/h (1 Bft) S-SO 165 0 min 0,000 mm 0,0 UV-I 0 W/m 5,9 C 8,4 C 8,0 km/h (2 Bft) 98,21 %
02.12.2015 19:00 8,3 C 84 % 1029,3 hPa 0,0 l/m 4,2 km/h (1 Bft) S-SO 167 0 min 0,000 mm 0,0 UV-I 0 W/m 5,8 C 8,3 C 6,4 km/h (2 Bft) 100,00 %
02.12.2015 19:05 8,2 C 85 % 1029,3 hPa 0,0 l/m 2,7 km/h (1 Bft) S-SO 167 0 min 0,000 mm 0,0 UV-I 0 W/m 5,8 C 8,2 C 6,4 km/h (2 Bft) 99,17 %
02.12.2015 19:10 7,9 C 85 % 1029,4 hPa 0,0 l/m 3,3 km/h (1 Bft) S-SO 167 0 min 0,000 mm 0,0 UV-I 0 W/m 5,5 C 7,9 C 6,4 km/h (2 Bft) 99,15 %
02.12.2015 19:15 7,8 C 86 % 1029,3 hPa 0,0 l/m 2,5 km/h (1 Bft) S-SO 167 0 min 0,000 mm 0,0 UV-I 0 W/m 5,6 C 7,8 C 4,8 km/h (1 Bft) 100,00 %
02.12.2015 19:20 7,6 C 86 % 1029,3 hPa 0,0 l/m 3,1 km/h (1 Bft) S-SO 167 0 min 0,000 mm 0,0 UV-I 0 W/m 5,4 C 7,6 C 6,4 km/h (2 Bft) 99,13 %
02.12.2015 19:25 7,3 C 86 % 1029,3 hPa 0,0 l/m 4,1 km/h (1 Bft) S 186 0 min 0,000 mm 0,0 UV-I 0 W/m 5,1 C 7,3 C 8,0 km/h (2 Bft) 98,21 %
02.12.2015 19:30 7,4 C 86 % 1029,3 hPa 0,0 l/m 3,4 km/h (1 Bft) S-SO 164 0 min 0,000 mm 0,0 UV-I 0 W/m 5,2 C 7,4 C 8,0 km/h (2 Bft) 100,00 %
02.12.2015 19:35 7,3 C 86 % 1029,3 hPa 0,0 l/m 4,3 km/h (1 Bft) S 173 0 min 0,000 mm 0,0 UV-I 0 W/m 5,1 C 7,3 C 8,0 km/h (2 Bft) 99,15 %
02.12.2015 19:40 7,2 C 87 % 1029,2 hPa 0,0 l/m 2,4 km/h (1 Bft) S 171 0 min 0,000 mm 0,0 UV-I 0 W/m 5,2 C 7,2 C 4,8 km/h (1 Bft) 99,19 %
02.12.2015 19:45 7,2 C 87 % 1029,2 hPa 0,0 l/m 3,3 km/h (1 Bft) S-SO 159 0 min 0,000 mm 0,0 UV-I 0 W/m 5,2 C 7,2 C 8,0 km/h (2 Bft) 95,54 %
02.12.2015 19:50 7,2 C 86 % 1029,2 hPa 0,0 l/m 3,6 km/h (1 Bft) S 174 0 min 0,000 mm 0,0 UV-I 0 W/m 5,0 C 7,2 C 8,0 km/h (2 Bft) 96,77 %
02.12.2015 19:55 6,9 C 86 % 1029,1 hPa 0,0 l/m 3,4 km/h (1 Bft) S 174 0 min 0,000 mm 0,0 UV-I 0 W/m 4,7 C 6,9 C 4,8 km/h (1 Bft) 98,17 %
02.12.2015 20:00 6,5 C 88 % 1029,1 hPa 0,0 l/m 3,5 km/h (1 Bft) S 174 0 min 0,000 mm 0,0 UV-I 0 W/m 4,7 C 6,5 C 4,8 km/h (1 Bft) 94,17 %
02.12.2015 20:05 6,3 C 89 % 1029,1 hPa 0,0 l/m 4,4 km/h (1 Bft) S 172 0 min 0,000 mm 0,0 UV-I 0 W/m 4,6 C 6,3 C 8,0 km/h (2 Bft) 96,61 %
02.12.2015 20:10 6,3 C 89 % 1029,0 hPa 0,0 l/m 3,4 km/h (1 Bft) S 172 0 min 0,000 mm 0,0 UV-I 0 W/m 4,6 C 6,3 C 4,8 km/h (1 Bft) 96,40 %
02.12.2015 20:15 6,1 C 89 % 1029,1 hPa 0,0 l/m 3,4 km/h (1 Bft) S 172 0 min 0,000 mm 0,0 UV-I 0 W/m 4,4 C 6,1 C 4,8 km/h (1 Bft) 97,39 %
02.12.2015 20:20 6,0 C 90 % 1029,2 hPa 0,0 l/m 3,1 km/h (1 Bft) S 172 0 min 0,000 mm 0,0 UV-I 0 W/m 4,5 C 6,0 C 4,8 km/h (1 Bft) 98,31 %
02.12.2015 20:25 5,7 C 90 % 1029,1 hPa 0,0 l/m 3,1 km/h (1 Bft) S 172 0 min 0,000 mm 0,0 UV-I 0 W/m 4,2 C 5,7 C 4,8 km/h (1 Bft) 99,15 %
02.12.2015 20:30 5,6 C 91 % 1029,1 hPa 0,0 l/m 4,1 km/h (1 Bft) S 172 0 min 0,000 mm 0,0 UV-I 0 W/m 4,2 C 5,6 C 4,8 km/h (1 Bft) 95,28 %
02.12.2015 20:35 5,6 C 91 % 1029,1 hPa 0,0 l/m 3,4 km/h (1 Bft) S 172 0 min 0,000 mm 0,0 UV-I 0 W/m 4,2 C 5,6 C 4,8 km/h (1 Bft) 99,08 %
02.12.2015 20:40 5,8 C 91 % 1029,2 hPa 0,0 l/m 3,1 km/h (1 Bft) S 172 0 min 0,000 mm 0,0 UV-I 0 W/m 4,4 C 5,8 C 4,8 km/h (1 Bft) 99,21 %
02.12.2015 20:45 5,7 C 90 % 1029,2 hPa 0,0 l/m 2,7 km/h (1 Bft) S 172 0 min 0,000 mm 0,0 UV-I 0 W/m 4,2 C 5,7 C 3,2 km/h (1 Bft) 98,17 %
02.12.2015 20:50 5,6 C 91 % 1029,2 hPa 0,0 l/m 3,0 km/h (1 Bft) S 172 0 min 0,000 mm 0,0 UV-I 0 W/m 4,2 C 5,6 C 4,8 km/h (1 Bft) 99,11 %
02.12.2015 20:55 5,3 C 91 % 1029,2 hPa 0,0 l/m 2,9 km/h (1 Bft) S 172 0 min 0,000 mm 0,0 UV-I 0 W/m 4,0 C 5,3 C 4,8 km/h (1 Bft) 100,00 %
02.12.2015 21:00 5,1 C 92 % 1029,3 hPa 0,0 l/m 2,6 km/h (1 Bft) S 172 0 min 0,000 mm 0,0 UV-I 0 W/m 3,9 C 5,1 C 3,2 km/h (1 Bft) 97,32 %
02.12.2015 21:05 4,9 C 93 % 1029,3 hPa 0,0 l/m 2,7 km/h (1 Bft) S 172 0 min 0,000 mm 0,0 UV-I 0 W/m 3,9 C 4,9 C 3,2 km/h (1 Bft) 99,15 %
02.12.2015 21:10 4,9 C 93 % 1029,3 hPa 0,0 l/m 3,8 km/h (1 Bft) S-SW 194 0 min 0,000 mm 0,0 UV-I 0 W/m 3,9 C 4,9 C 6,4 km/h (2 Bft) 100,00 %
02.12.2015 21:15 4,7 C 93 % 1029,4 hPa 0,0 l/m 3,3 km/h (1 Bft) S-SW 194 0 min 0,000 mm 0,0 UV-I 0 W/m 3,7 C 4,7 C 4,8 km/h (1 Bft) 97,17 %
02.12.2015 21:20 4,7 C 93 % 1029,4 hPa 0,0 l/m 1,6 km/h (1 Bft) S 190 0 min 0,000 mm 0,0 UV-I 0 W/m 3,7 C 4,7 C 3,2 km/h (1 Bft) 98,41 %
02.12.2015 21:25 5,0 C 94 % 1029,4 hPa 0,0 l/m 1,7 km/h (1 Bft) S 184 0 min 0,000 mm 0,0 UV-I 0 W/m 4,1 C 5,0 C 3,2 km/h (1 Bft) 99,11 %
02.12.2015 21:30 5,1 C 92 % 1029,4 hPa 0,0 l/m 2,3 km/h (1 Bft) S 182 0 min 0,000 mm 0,0 UV-I 0 W/m 3,9 C 5,1 C 4,8 km/h (1 Bft) 98,21 %
02.12.2015 21:35 5,2 C 92 % 1029,4 hPa 0,0 l/m 3,7 km/h (1 Bft) S 179 0 min 0,000 mm 0,0 UV-I 0 W/m 4,0 C 5,2 C 4,8 km/h (1 Bft) 99,22 %
02.12.2015 21:40 5,2 C 92 % 1029,4 hPa 0,0 l/m 4,7 km/h (1 Bft) S 178 0 min 0,000 mm 0,0 UV-I 0 W/m 4,0 C 5,2 C 6,4 km/h (2 Bft) 98,31 %
02.12.2015 21:45 5,1 C 92 % 1029,4 hPa 0,0 l/m 4,6 km/h (1 Bft) S 175 0 min 0,000 mm 0,0 UV-I 0 W/m 3,9 C 5,1 C 8,0 km/h (2 Bft) 97,37 %
02.12.2015 21:50 5,1 C 93 % 1029,3 hPa 0,0 l/m 1,9 km/h (1 Bft) S 175 0 min 0,000 mm 0,0 UV-I 0 W/m 4,1 C 5,1 C 4,8 km/h (1 Bft) 96,61 %
02.12.2015 21:55 5,2 C 92 % 1029,4 hPa 0,0 l/m 1,6 km/h (1 Bft) S 175 0 min 0,000 mm 0,0 UV-I 0 W/m 4,0 C 5,2 C 3,2 km/h (1 Bft) 97,32 %
02.12.2015 22:00 5,3 C 92 % 1029,4 hPa 0,0 l/m 3,2 km/h (1 Bft) S 174 0 min 0,000 mm 0,0 UV-I 0 W/m 4,1 C 5,3 C 4,8 km/h (1 Bft) 97,56 %
02.12.2015 22:05 5,2 C 91 % 1029,4 hPa 0,0 l/m 1,8 km/h (1 Bft) S 176 0 min 0,000 mm 0,0 UV-I 0 W/m 3,9 C 5,2 C 3,2 km/h (1 Bft) 95,65 %
02.12.2015 22:10 5,1 C 92 % 1029,5 hPa 0,0 l/m 1,6 km/h (1 Bft) S 180 0 min 0,000 mm 0,0 UV-I 0 W/m 3,9 C 5,1 C 4,8 km/h (1 Bft) 100,00 %
02.12.2015 22:15 5,2 C 92 % 1029,4 hPa 0,0 l/m 3,2 km/h (1 Bft) S 180 0 min 0,000 mm 0,0 UV-I 0 W/m 4,0 C 5,2 C 6,4 km/h (2 Bft) 99,12 %
02.12.2015 22:20 5,1 C 92 % 1029,3 hPa 0,0 l/m 4,8 km/h (1 Bft) S 180 0 min 0,000 mm 0,0 UV-I 0 W/m 3,9 C 5,1 C 6,4 km/h (2 Bft) 100,00 %
02.12.2015 22:25 4,9 C 92 % 1029,4 hPa 0,0 l/m 2,4 km/h (1 Bft) S 171 0 min 0,000 mm 0,0 UV-I 0 W/m 3,7 C 4,9 C 3,2 km/h (1 Bft) 100,00 %
02.12.2015 22:30 4,4 C 93 % 1029,3 hPa 0,0 l/m 2,9 km/h (1 Bft) S 171 0 min 0,000 mm 0,0 UV-I 0 W/m 3,4 C 4,4 C 6,4 km/h (2 Bft) 96,83 %
02.12.2015 22:35 3,9 C 93 % 1029,4 hPa 0,0 l/m 2,9 km/h (1 Bft) S 171 0 min 0,000 mm 0,0 UV-I 0 W/m 2,9 C 3,9 C 6,4 km/h (2 Bft) 98,39 %
02.12.2015 22:40 3,7 C 94 % 1029,5 hPa 0,0 l/m 2,4 km/h (1 Bft) S 171 0 min 0,000 mm 0,0 UV-I 0 W/m 2,8 C 3,7 C 3,2 km/h (1 Bft) 98,33 %
02.12.2015 22:45 3,8 C 95 % 1029,5 hPa 0,0 l/m 2,9 km/h (1 Bft) S 171 0 min 0,000 mm 0,0 UV-I 0 W/m 3,1 C 3,8 C 6,4 km/h (2 Bft) 100,00 %
02.12.2015 22:50 4,1 C 96 % 1029,4 hPa 0,0 l/m 3,2 km/h (1 Bft) S 169 0 min 0,000 mm 0,0 UV-I 0 W/m 3,5 C 4,1 C 6,4 km/h (2 Bft) 98,26 %
02.12.2015 22:55 4,3 C 95 % 1029,3 hPa 0,0 l/m 3,7 km/h (1 Bft) S 169 0 min 0,000 mm 0,0 UV-I 0 W/m 3,6 C 4,3 C 6,4 km/h (2 Bft) 100,00 %
02.12.2015 23:00 4,4 C 95 % 1029,3 hPa 0,0 l/m 3,4 km/h (1 Bft) S-SO 168 0 min 0,000 mm 0,0 UV-I 0 W/m 3,7 C 4,4 C 6,4 km/h (2 Bft) 96,52 %
02.12.2015 23:05 4,7 C 95 % 1029,3 hPa 0,0 l/m 2,4 km/h (1 Bft) S-SO 168 0 min 0,000 mm 0,0 UV-I 0 W/m 4,0 C 4,7 C 6,4 km/h (2 Bft) 97,58 %
02.12.2015 23:10 4,7 C 94 % 1029,4 hPa 0,0 l/m 3,5 km/h (1 Bft) S-SO 168 0 min 0,000 mm 0,0 UV-I 0 W/m 3,8 C 4,7 C 6,4 km/h (2 Bft) 98,21 %
02.12.2015 23:15 4,7 C 94 % 1029,4 hPa 0,0 l/m 2,2 km/h (1 Bft) S 169 0 min 0,000 mm 0,0 UV-I 0 W/m 3,8 C 4,7 C 6,4 km/h (2 Bft) 99,15 %
02.12.2015 23:20 4,8 C 94 % 1029,5 hPa 0,0 l/m 2,3 km/h (1 Bft) S 170 0 min 0,000 mm 0,0 UV-I 0 W/m 3,9 C 4,8 C 6,4 km/h (2 Bft) 100,00 %
02.12.2015 23:25 4,6 C 93 % 1029,5 hPa 0,0 l/m 4,1 km/h (1 Bft) S 170 0 min 0,000 mm 0,0 UV-I 0 W/m 3,6 C 4,6 C 6,4 km/h (2 Bft) 99,17 %
02.12.2015 23:30 4,5 C 94 % 1029,5 hPa 0,0 l/m 4,0 km/h (1 Bft) S 173 0 min 0,000 mm 0,0 UV-I 0 W/m 3,6 C 4,5 C 8,0 km/h (2 Bft) 100,00 %
02.12.2015 23:35 4,5 C 95 % 1029,5 hPa 0,0 l/m 2,2 km/h (1 Bft) S 172 0 min 0,000 mm 0,0 UV-I 0 W/m 3,8 C 4,5 C 4,8 km/h (1 Bft) 100,00 %
02.12.2015 23:40 4,8 C 95 % 1029,5 hPa 0,0 l/m 2,0 km/h (1 Bft) S 172 0 min 0,000 mm 0,0 UV-I 0 W/m 4,1 C 4,8 C 3,2 km/h (1 Bft) 98,33 %
02.12.2015 23:45 4,7 C 93 % 1029,5 hPa 0,0 l/m 3,5 km/h (1 Bft) S 172 0 min 0,000 mm 0,0 UV-I 0 W/m 3,7 C 4,7 C 4,8 km/h (1 Bft) 97,39 %
02.12.2015 23:50 4,5 C 94 % 1029,6 hPa 0,0 l/m 3,3 km/h (1 Bft) S 172 0 min 0,000 mm 0,0 UV-I 0 W/m 3,6 C 4,5 C 4,8 km/h (1 Bft) 99,10 %
02.12.2015 23:55 4,4 C 95 % 1029,7 hPa 0,0 l/m 1,7 km/h (1 Bft) S 172 0 min 0,000 mm 0,0 UV-I 0 W/m 3,7 C 4,4 C 4,8 km/h (1 Bft) 100,00 %
_ Min-Zeit 22:40 12:50 02:10 - 17:25 - - - - - - 22:40 08:20 17:25 05:40
Minimum _ 3,7 C 79 % 1027,1 hPa - 0,4 km/h (0 Bft) - - - - - - 2,8 C 2,2 C 1,6 km/h (1 Bft) 94,17 %
_ Max-Zeit 13:10 22:50 11:30 00:00 02:15 - - 00:00 13:05 13:10 13:10 00:00 15:00 02:20 00:35
Maximum _ 10,4 C 96 % 1029,7 hPa 0,0 l/m 20,8 km/h
W-SW (4 Bft)
- - 0 min 0,077 mm 0,5 UV-I 158 W/m 7,7 C 10,2 C 40,2 km/h
W-SW (6 Bft)
100,00 %
Durchschnitt _ 8,7 C 86 % 1028,7 hPa #0,0 l/m 10,1 km/h (2 Bft) W-SW - #0 min. #0,635 mm 0,4 UV-I 68 W/m 6,4 C 5,8 C 17,0 km/h (3 Bft) 98,39 %